User: anonymous   Login
Location: Unspecified
(0.0000°N, 0.0000°E)
Time: 17:31:26
(UTC+01:00)
Language:

Cosmos 1933 - Orbit

View from above orbital plane
View from above orbital plane
View from above satellite
View from above satellite

Ground track
Ground track

The orbit data is extracted from the following two-line orbital elements,

1 18958U 88020A   15059.80610129  .00002090  00000-0  15848-3 0  9996
2 18958 082.5312 193.1109 0010947 252.8678 107.1349 15.01730543465477
Epoch (UTC): 28 February 2015 19:20:47
Eccentricity: 0.0010947
inclination: 82.5312°
perigee height: 554 km
apogee height: 569 km
right ascension of ascending node: 193.1109°
argument of perigee: 252.8678°
revolutions per day: 15.01730543
mean anomaly at epoch: 107.1349°
orbit number at epoch: 46547

The dashed part of the orbit path shows where the satellite is in the earth's shadow,  

DLR